Change the Weather History Date:

Sunday, January 5, 2014

  Actual Average Record
Temperature  
Mean Temperature 62 °F 56 °F  
Max Temperature 79 °F 67 °F 85 °F (2006)
Min Temperature 45 °F 46 °F 31 °F (1973)
Degree Days  
Heating Degree Days 3 9  
Month to date heating degree days 30 45  
Since 1 July heating degree days 343 465  
Cooling Degree Days 0 0  
Month to date cooling degree days 0 0  
Year to date cooling degree days 0 0  
Growing Degree Days 12 (Base 50)    
Moisture  
Dew Point 35 °F    
Average Humidity 47    
Maximum Humidity 86    
Minimum Humidity 8    
Precipitation  
Precipitation 0.00 in 0.09 in 1.83 in (1979)
Month to date precipitation 0.00 0.43  
Year to date precipitation 0.00 0.43  
Since 1 July precipitation 1.31 4.25  
Sea Level Pressure  
Sea Level Pressure 30.08 in    
Wind  
Wind Speed 3 mph (NW)    
Max Wind Speed 9 mph    
Max Gust Speed 14 mph    
Visibility 6 miles    
Events      
T = Trace of Precipitation, MM = Missing Value Source: NWS Daily Summary

Daily Weather History Graph

Daily Weather History Graph

Search for Another Location

Airport or City:

Trip Planner

Search our weather history database for the weather conditions in past years. The results will help you decide how hot, cold, wet, or windy it might be!

Date:

Astronomy

Jan. 05, 2014 Rise Set
Actual Time 6:58 AM PST 4:58 PM PST
Civil Twilight 6:30 AM PST 5:25 PM PST
Nautical Twilight 5:59 AM PST 5:56 PM PST
Astronomical Twilight 5:29 AM PST 6:26 PM PST
Moon 9:57 AM PST (1/5) 10:14 PM PST (1/5)
Length of Visible Light 10h 54m
Length of Day
10h 00m
Waxing Crescent, 25% of the Moon is Illuminated
Jan 5
Waxing Crescent
Jan 7
First Quarter
Jan 15
Full
Jan 23
Last Quarter
Jan 30
New

Hourly Weather History & Observations

Time (PST) Temp. Windchill Dew Point Humidity Pressure Visibility Wind Dir Wind Speed Gust Speed Precip Events Conditions
12:09 AM 51.8 °F - 46.4 °F 82% 30.03 in 2.5 mi Calm Calm - N/A   Haze
12:53 AM 50.0 °F - 46.0 °F 86% 30.03 in 2.5 mi Calm Calm - N/A   Clear
1:39 AM 50.0 °F - 44.6 °F 82% 30.04 in 3.0 mi Calm Calm - N/A   Haze
1:51 AM 50.0 °F - 44.6 °F 82% 30.04 in 2.5 mi Calm Calm - N/A   Haze
1:53 AM 50.0 °F - 45.0 °F 83% 30.04 in 2.5 mi Calm Calm - N/A   Haze
2:34 AM 50.0 °F - 44.6 °F 82% 30.05 in 3.0 mi Calm Calm - N/A   Haze
2:53 AM 48.0 °F - 43.0 °F 83% 30.05 in 3.0 mi Calm Calm - N/A   Haze
3:37 AM 48.2 °F - 42.8 °F 82% 30.06 in 2.0 mi Calm Calm - N/A   Haze
3:45 AM 48.2 °F - 42.8 °F 82% 30.05 in 1.8 mi Calm Calm - N/A   Haze
3:53 AM 48.0 °F - 43.0 °F 83% 30.05 in 2.5 mi Calm Calm - N/A   Haze
4:02 AM 48.2 °F - 42.8 °F 82% 30.05 in 3.0 mi Calm Calm - N/A   Haze
4:53 AM 48.0 °F - 42.1 °F 80% 30.06 in 3.0 mi Calm Calm - N/A   Haze
5:53 AM 46.9 °F - 41.0 °F 80% 30.06 in 4.0 mi Calm Calm - N/A   Haze
6:53 AM 45.0 °F 43.5 °F 39.9 °F 82% 30.08 in 3.0 mi NNW 3.5 mph - N/A   Haze
7:53 AM 46.9 °F - 42.1 °F 83% 30.10 in 3.0 mi Calm Calm - N/A   Haze
8:53 AM 55.0 °F - 44.1 °F 67% 30.12 in 4.0 mi NW 3.5 mph - N/A   Haze
9:53 AM 64.0 °F - 36.0 °F 35% 30.14 in 9.0 mi NNW 6.9 mph - N/A   Clear
10:53 AM 72.0 °F - 26.1 °F 18% 30.12 in 7.0 mi NNW 6.9 mph - N/A   Clear
11:53 AM 75.0 °F - 19.9 °F 13% 30.09 in 10.0 mi NW 5.8 mph - N/A   Clear
12:53 PM 79.0 °F - 12.9 °F 8% 30.06 in 10.0 mi Calm Calm - N/A   Clear
1:53 PM 78.1 °F - 18.0 °F 10% 30.06 in 10.0 mi SSW 5.8 mph - N/A   Clear
2:53 PM 77.0 °F - 16.0 °F 10% 30.06 in 10.0 mi SW 4.6 mph - N/A   Clear
3:53 PM 77.0 °F - 15.1 °F 10% 30.07 in 10.0 mi Calm Calm - N/A   Clear
4:53 PM 69.1 °F - 34.0 °F 27% 30.08 in 10.0 mi WNW 6.9 mph - N/A   Clear
5:53 PM 64.9 °F - 33.1 °F 31% 30.09 in 10.0 mi NW 5.8 mph - N/A   Clear
6:53 PM 63.0 °F - 37.9 °F 40% 30.11 in 10.0 mi WNW 4.6 mph - N/A   Clear
7:53 PM 62.1 °F - 32.0 °F 32% 30.12 in 10.0 mi Calm Calm - N/A   Clear
8:53 PM 55.9 °F - 37.0 °F 49% 30.14 in 9.0 mi NW 4.6 mph - N/A   Clear
9:53 PM 54.0 °F - 35.1 °F 49% 30.14 in 9.0 mi NW 3.5 mph - N/A   Clear
10:53 PM 55.0 °F - 34.0 °F 45% 30.15 in 9.0 mi WNW 3.5 mph - N/A   Clear
11:53 PM 53.1 °F - 30.0 °F 41% 30.14 in 10.0 mi NW 4.6 mph - N/A   Clear